{"data":{"norad_id":68462,"epoch":"2026-05-25T03:14:55.708800Z","epoch_age_seconds":67284,"freshness":"FRESH","line1":"1 68462U 26067AY  26145.13536700  .00006527  00000+0  32081-3 0  9996","line2":"2 68462  97.4537 103.9525 0004588  99.5522 260.6231 15.18366321  8447","mean_motion":15.18366321,"eccentricity":0.0004588,"inclination_deg":97.4537,"raan_deg":103.9525,"arg_perigee_deg":99.5522,"mean_anomaly_deg":260.6231,"bstar":0.00032081,"rev_number":844,"period_min":94.838773758602,"perigee_km":507.61694992696,"apogee_km":513.93821794918,"semimajor_km":6888.9145839381,"source":"CELESTRAK","updated_at":"2026-05-25T13:38:07.846122Z"}}